User: anonymous   Login
Location: Sungai Laei
(2.6000°N, 113.7167°E)
Time: 07:15:48
(UTC+00:00)
Language:

Meteor 1-20 Rocket - Orbit

View from above orbital plane
View from above orbital plane
View from above satellite
View from above satellite

Ground track
Ground track

The orbit data is extracted from the following two-line orbital elements,

1 07575U 74099B   22228.48342637 -.00000094  00000-0 -58053-4 0  9996
2 07575  81.2438 274.6753 0049614 323.5780  36.2019 14.11131704452407
Epoch (UTC): 16 August 2022 11:36:08
Eccentricity: 0.0049614
inclination: 81.2438°
perigee height: 819 km
apogee height: 891 km
right ascension of ascending node: 274.6753°
argument of perigee: 323.5780°
revolutions per day: 14.11131704
mean anomaly at epoch: 36.2019°
orbit number at epoch: 45240

The dashed part of the orbit path shows where the satellite is in the earth's shadow,  

DLR